Weather History for Sulphur Springs, TX

Change the Weather History Date:

Monday, May 5, 2014

  Actual Average (KGVT) Record (KGVT)
Temperature  
Mean Temperature 72 °F -  
Max Temperature 85 °F 78 °F 91 °F (2003)
Min Temperature 60 °F 63 °F 42 °F (2013)
Cooling Degree Days 8    
Growing Degree Days 22 (Base 50)    
Moisture  
Dew Point 51 °F    
Average Humidity 45    
Maximum Humidity 65    
Minimum Humidity 34    
Precipitation  
Precipitation 0.00 in - - ()
Sea Level Pressure  
Sea Level Pressure 29.91 in    
Wind  
Wind Speed 13 mph (South)    
Max Wind Speed 22 mph    
Max Gust Speed 26 mph    
Visibility 10 miles    
Events      
Averages and records for this station are not official NWS values.
T = Trace of Precipitation, MM = Missing Value Source: NWS Daily Summary

Daily Weather History Graph

Daily Weather History Graph

Search for Another Location

Airport:

Trip Planner

Search our weather history database for the weather conditions in past years. The results will help you decide how hot, cold, wet, or windy it might be!

Date:

Astronomy

May. 05, 2014 Rise Set
Actual Time 6:30 AM CDT 8:07 PM CDT
Civil Twilight 6:04 AM CDT 8:34 PM CDT
Nautical Twilight 5:32 AM CDT 9:06 PM CDT
Astronomical Twilight 4:58 AM CDT 9:40 PM CDT
Moon 11:50 AM CDT (5/5) 12:53 AM CDT (5/5)
Length of Visible Light 14h 30m
Length of Day
13h 37m
Waxing Crescent, 37% of the Moon is Illuminated
May 5
Waxing Crescent
May 6
First Quarter
May 14
Full
May 21
Last Quarter
May 28
New

Hourly Weather History & Observations

Time (CDT) Temp. Heat Index Dew Point Humidity Pressure Visibility Wind Dir Wind Speed Gust Speed Precip Events Conditions
12:15 AM 72.7 °F - 47.7 °F 41% 29.98 in 10.0 mi South 11.5 mph 17.3 mph N/A   Clear
12:35 AM 72.5 °F - 46.8 °F 40% 29.98 in 10.0 mi South 16.1 mph - N/A   Clear
12:55 AM 71.6 °F - 46.2 °F 40% 29.98 in 10.0 mi South 15.0 mph - N/A   Clear
1:15 AM 71.1 °F - 45.3 °F 40% 29.97 in 10.0 mi SSW 13.8 mph - N/A   Clear
1:35 AM 70.2 °F - 45.0 °F 40% 29.96 in 10.0 mi South 13.8 mph 17.3 mph N/A   Clear
1:55 AM 69.8 °F - 44.4 °F 40% 29.96 in 10.0 mi South 13.8 mph 19.6 mph N/A   Clear
2:15 AM 69.1 °F - 42.3 °F 38% 29.96 in 10.0 mi SSW 13.8 mph 19.6 mph N/A   Clear
2:35 AM 68.5 °F - 40.3 °F 36% 29.96 in 10.0 mi South 15.0 mph 20.7 mph N/A   Clear
2:55 AM 68.0 °F - 39.0 °F 35% 29.95 in 10.0 mi SSW 12.7 mph 19.6 mph N/A   Clear
3:15 AM 67.1 °F - 38.1 °F 34% 29.96 in 10.0 mi SSW 11.5 mph - N/A   Clear
3:35 AM 66.2 °F - 37.6 °F 35% 29.96 in 10.0 mi SSW 10.4 mph - N/A   Clear
3:55 AM 65.1 °F - 37.0 °F 35% 29.96 in 10.0 mi SSW 10.4 mph - N/A   Clear
4:15 AM 65.1 °F - 35.8 °F 34% 29.96 in 10.0 mi South 10.4 mph - N/A   Clear
4:35 AM 64.0 °F - 35.6 °F 35% 29.96 in 10.0 mi South 10.4 mph - N/A   Clear
4:55 AM 62.6 °F - 35.8 °F 37% 29.96 in 10.0 mi SSW 9.2 mph - N/A   Clear
5:15 AM 61.3 °F - 36.3 °F 39% 29.96 in 10.0 mi SSW 9.2 mph - N/A   Clear
5:35 AM 62.1 °F - 36.3 °F 38% 29.96 in 10.0 mi SSW 11.5 mph 17.3 mph N/A   Clear
5:55 AM 61.5 °F - 37.8 °F 41% 29.96 in 10.0 mi SSW 12.7 mph - N/A   Clear
6:15 AM 61.3 °F - 39.6 °F 45% 29.96 in 10.0 mi SSW 10.4 mph - N/A   Clear
6:35 AM 60.8 °F - 41.7 °F 49% 29.97 in 10.0 mi SSW 12.7 mph - N/A   Clear
6:55 AM 60.8 °F - 44.1 °F 54% 29.98 in 10.0 mi SSW 11.5 mph - N/A   Clear
7:15 AM 60.8 °F - 46.4 °F 59% 29.98 in 10.0 mi South 9.2 mph - N/A   Clear
7:35 AM 61.5 °F - 47.7 °F 60% 29.99 in 10.0 mi SSW 10.4 mph - N/A   Clear
7:55 AM 62.2 °F - 49.5 °F 63% 29.98 in 10.0 mi South 11.5 mph 16.1 mph N/A   Clear
8:15 AM 63.7 °F - 51.8 °F 65% 29.98 in 10.0 mi SSW 13.8 mph - N/A   Clear
8:35 AM 65.3 °F - 53.4 °F 65% 29.98 in 10.0 mi SSW 12.7 mph - N/A   Clear
8:55 AM 67.1 °F - 54.1 °F 63% 29.98 in 10.0 mi SSW 15.0 mph 23.0 mph N/A   Clear
9:15 AM 69.1 °F - 54.7 °F 60% 29.98 in 10.0 mi SSW 18.4 mph 24.2 mph N/A   Clear
9:35 AM 70.7 °F - 54.7 °F 57% 29.98 in 10.0 mi SSW 17.3 mph 25.3 mph N/A   Clear
9:55 AM 72.1 °F - 55.4 °F 56% 29.98 in 10.0 mi SSW 15.0 mph 23.0 mph N/A   Clear
10:15 AM 73.2 °F - 55.9 °F 55% 29.98 in 10.0 mi SSW 16.1 mph 21.9 mph N/A   Clear
10:35 AM 73.9 °F - 56.3 °F 54% 29.97 in 10.0 mi SSW 15.0 mph 23.0 mph N/A   Clear
10:55 AM 75.0 °F - 57.0 °F 53% 29.97 in 10.0 mi South 16.1 mph 21.9 mph N/A   Clear
11:15 AM 75.2 °F - 57.0 °F 53% 29.96 in 10.0 mi SSW 17.3 mph 20.7 mph N/A   Clear
11:35 AM 76.5 °F - 57.2 °F 51% 29.96 in 10.0 mi SSW 21.9 mph 25.3 mph N/A   Clear
11:55 AM 77.9 °F - 57.9 °F 50% 29.96 in 10.0 mi SSW 17.3 mph 23.0 mph N/A   Clear
12:15 PM 78.6 °F - 57.9 °F 49% 29.95 in 10.0 mi South 17.3 mph - N/A   Clear
12:35 PM 79.0 °F - 58.3 °F 49% 29.95 in 10.0 mi SSW 15.0 mph - N/A   Clear
12:55 PM 79.7 °F - 57.7 °F 47% 29.94 in 10.0 mi South 15.0 mph 20.7 mph N/A   Clear
1:15 PM 80.8 °F 81.1 °F 58.3 °F 46% 29.94 in 10.0 mi South 18.4 mph 26.5 mph N/A   Clear
1:35 PM 81.7 °F 81.9 °F 58.8 °F 46% 29.93 in 10.0 mi South 17.3 mph 23.0 mph N/A   Clear
1:55 PM 82.4 °F 82.5 °F 59.0 °F 45% 29.91 in 10.0 mi SSW 17.3 mph - N/A   Clear
2:15 PM 82.6 °F 82.5 °F 58.6 °F 44% 29.91 in 10.0 mi SSW 18.4 mph 26.5 mph N/A   Clear
2:35 PM 83.5 °F 82.9 °F 57.4 °F 41% 29.90 in 10.0 mi SSW 17.3 mph 23.0 mph N/A   Clear
2:55 PM 83.7 °F 83.3 °F 58.1 °F 42% 29.89 in 10.0 mi South 13.8 mph 19.6 mph N/A   Clear
3:15 PM 84.4 °F 83.7 °F 57.7 °F 40% 29.88 in 10.0 mi South 15.0 mph 23.0 mph N/A   Clear
3:35 PM 84.9 °F 83.9 °F 57.0 °F 38% 29.87 in 10.0 mi South 19.6 mph 25.3 mph N/A   Clear
3:55 PM 85.1 °F 84.3 °F 57.4 °F 39% 29.86 in 10.0 mi South 12.7 mph 23.0 mph N/A   Clear
4:15 PM 85.1 °F 84.1 °F 57.0 °F 38% 29.84 in 10.0 mi South 15.0 mph 20.7 mph N/A   Clear
4:35 PM 84.6 °F 83.5 °F 56.5 °F 38% 29.84 in 10.0 mi South 17.3 mph 21.9 mph N/A   Clear
4:55 PM 84.4 °F 83.5 °F 56.7 °F 39% 29.84 in 10.0 mi South 16.1 mph 21.9 mph N/A   Clear
5:15 PM 84.6 °F 83.4 °F 55.6 °F 37% 29.84 in 10.0 mi South 16.1 mph 21.9 mph N/A   Clear
5:35 PM 84.2 °F 83.0 °F 55.6 °F 37% 29.84 in 10.0 mi South 18.4 mph 24.2 mph N/A   Clear
5:55 PM 83.8 °F 82.7 °F 54.7 °F 37% 29.84 in 10.0 mi South 13.8 mph 21.9 mph N/A   Clear
6:15 PM 83.3 °F 82.1 °F 54.0 °F 36% 29.84 in 10.0 mi South 12.7 mph 24.2 mph N/A   Clear
6:35 PM 82.8 °F 81.7 °F 54.0 °F 37% 29.83 in 10.0 mi South 11.5 mph 19.6 mph N/A   Clear
6:55 PM 82.0 °F 81.3 °F 53.8 °F 38% 29.83 in 10.0 mi South 12.7 mph - N/A   Clear
7:15 PM 81.0 °F 80.4 °F 53.1 °F 38% 29.82 in 10.0 mi South 9.2 mph 12.7 mph N/A   Clear
7:35 PM 79.7 °F - 52.9 °F 39% 29.82 in 10.0 mi South 9.2 mph - N/A   Clear
7:55 PM 78.3 °F - 53.2 °F 42% 29.82 in 10.0 mi SSE 6.9 mph - N/A   Clear
8:15 PM 76.8 °F - 53.4 °F 44% 29.82 in 10.0 mi South 6.9 mph - N/A   Clear
8:35 PM 75.7 °F - 53.2 °F 45% 29.82 in 10.0 mi South 5.8 mph - N/A   Clear
8:55 PM 74.5 °F - 53.2 °F 47% 29.82 in 10.0 mi South 5.8 mph - N/A   Clear
9:15 PM 73.9 °F - 53.1 °F 48% 29.83 in 10.0 mi South 5.8 mph - N/A   Clear
9:35 PM 72.7 °F - 53.6 °F 51% 29.83 in 10.0 mi South 3.5 mph - N/A   Clear
9:55 PM 72.7 °F - 54.1 °F 52% 29.83 in 10.0 mi South 8.1 mph - N/A   Clear
10:15 PM 73.4 °F - 54.0 °F 50% 29.83 in 10.0 mi South 8.1 mph - N/A   Clear
10:35 PM 73.6 °F - 53.8 °F 50% 29.84 in 10.0 mi South 8.1 mph - N/A   Clear
10:55 PM 72.9 °F - 53.8 °F 51% 29.84 in 10.0 mi South 9.2 mph - N/A   Clear
11:15 PM 71.6 °F - 53.8 °F 53% 29.84 in 10.0 mi South 6.9 mph - N/A   Clear
11:35 PM 71.1 °F - 53.8 °F 54% 29.85 in 10.0 mi South 8.1 mph - N/A   Clear